Regional Weather Roundup
Issued by NWS

Home | Current Version | Previous Version | Graphics & Text | Print | Product List | Glossary On
Versions: 1 2 3 4 5 6 7 8 9 10 11 12 13 14 15 16 17 18 19 20 21 22 23 24 25 26 27 28 29 30 31 32 33 34 35 36 37 38 39 40 41 42 43 44 45 46 47 48 49 50
000
ASUS43 KLOT 292100
RWRIL

ILLINOIS REGIONAL WEATHER ROUNDUP
NATIONAL WEATHER SERVICE CHICAGO/ROMEOVILLE IL
400 PM CDT FRI MAY 29 2015

NOTE: "FAIR" INDICATES FEW OR NO CLOUDS BELOW 12,000 FEET WITH NO
SIGNIFICANT WEATHER AND/OR OBSTRUCTIONS TO VISIBILITY.

* THESE STATIONS ARE NOT UNDER NWS QUALITY CONTROL. THEY ALSO MAY NOT
  REPORT WEATHER SUCH AS PRECIPITATION OR FOG.

ILZ001-002-007-009-015-016-024-292200-
NORTHWEST ILLINOIS

CITY           SKY/WX    TMP DP  RH WIND       PRES   REMARKS
MOLINE         PTSUNNY   81  65  58 SW17      29.91F HX  83
STERLING*      MOSUNNY   81  66  61 SW10G22   29.91F HX  83
$$

ILZ003-004-008-010-011-017-018-292200-
NORTH CENTRAL ILLINOIS

CITY           SKY/WX    TMP DP  RH WIND       PRES   REMARKS
ROCKFORD       CLOUDY    77  64  64 SW14G23   29.92F
$$

ILZ005-006-012>014-019>023-292200-
NORTHEAST ILLINOIS

CITY           SKY/WX    TMP DP  RH WIND       PRES   REMARKS
CHICAGO-OHARE  PTSUNNY   78  64  61 S22G28    29.91F HX  80
CHICAGO-MIDWAY PTSUNNY   82  65  56 SW16G24   29.92F HX  84
AURORA         CLOUDY    80  63  55 SW14      29.92F HX  81
WAUKEGAN       PTSUNNY   70  64  81 SE9       29.90F
DUPAGE AIRPORT PTSUNNY   79  65  62 S13       29.91F HX  81
WHEELING       PTSUNNY   80  68  66 S12       29.91F HX  83
NORTHERLY ISL    N/A     67  62  84 SE5         N/A
$$

LMZ740>746-292200-
SOUTHERN LAKE MICHIGAN

STATION/POSITION SKY/WX   TEMP    WIND        PRES    VSBY  WAVE
                          AIR SEA DIR/SP/G                  HT/PER
                          (F)     (DEG/KT/KT) (MB)    (MI)  (FT/S)
SOUTHERN BUOY              49 38  170/  8/ 10 1015.2          0
HARRISON CRIB              72     150/  8/ 10   N/A
BURNHAM HARBOR             70     150/  1/  8   N/A
BURNS HARBOR               81     180/ 17/ 22 1014.9F
MICHIGAN CITY              80     170/ 12/ 17   N/A
MICHIGAN CITY 6N           62 57   10/  6/  8   N/A           1
ST. JOSEPH                 61 58  130/  4/  6   N/A           1/ 2
$$

ILZ025>027-034>036-040-047-049-050-058-095>099-292200-
WEST-CENTRAL ILLINOIS

CITY           SKY/WX    TMP DP  RH WIND       PRES   REMARKS
QUINCY         CLOUDY    76  64  66 SW12      29.97F
$$

ILZ028>032-037-038-041>044-048-051>054-059>061-292200-
CENTRAL ILLINOIS

CITY           SKY/WX    TMP DP  RH WIND       PRES   REMARKS
DECATUR        PTSUNNY   83  66  56 S15G22    29.98F HX  85
PEORIA         MOSUNNY   84  64  50 SW14      29.94F HX  85
SPRINGFIELD    PTSUNNY   83  70  64 SE17      29.95F HX  87
TAYLORVILLE    NOT AVBL
$$

ILZ033-039-045-046-055>057-062-063-292200-
EAST-CENTRAL ILLINOIS

CITY           SKY/WX    TMP DP  RH WIND       PRES   REMARKS
CHAMPAIGN      MOSUNNY   86  62  44 S22G29    29.98F HX  86
MATTOON        PTSUNNY   80  69  69 S5        30.00F HX  83
$$

ILZ079-100>102-292200-
SOUTHWEST ILLINOIS

CITY           SKY/WX    TMP DP  RH WIND       PRES   REMARKS
BELLEVILLE     CLOUDY    72  71  99 S7        29.99F
CAHOKIA*       LGT RAIN  79  70  74 S6        29.98F HX  82
$$

ILZ064>066-069>071-074>076-080>082-084>086-088>090-092>094-292200-
SOUTH-CENTRAL ILLINOIS

CITY           SKY/WX    TMP DP  RH WIND       PRES   REMARKS
CARBONDALE     MOSUNNY   84  68  58 S15       30.00F HX  87
MARION         PTSUNNY   84  70  61 S15       30.01F HX  88
MT. VERNON     PTSUNNY   84  66  54 S14       30.01F HX  86
$$

ILZ067-068-072-073-078-083-087-091-292200-
SOUTHEAST ILLINOIS

CITY           SKY/WX    TMP DP  RH WIND       PRES   REMARKS
LAWRENCEVILLE  PTSUNNY   84  65  52 S12       30.02F HX  86
$$

ABBREVIATIONS USED IN REMARKS
   TC - TEMPERATURE IN CELSIUS
  WCI - WIND CHILL INDEX
   HX - HEAT INDEX
  VSB - VISIBILITY
$$




USA.gov is the U.S. government's official web portal to all federal, state and local government web resources and services.